Total_Precipitation_Accumulation
1.74 1.94 2.25 2.66 3.37 4.01 4.61 4.71 4.88 4.32 3.63 3.09 2.68 2.51 2.25 1.98 1.90 1.77 1.60 1.47 1.34 1.28 1.41 1.26 1.17 1.15 1.20 1.22 1.34 1.43 1.45 1.22 1.40 1.57 1.12 0.79 0.61 0.53 0.42 0.42 0.47 0.51 0.59
1.79 2.18 2.71 3.04 3.03 3.48 4.12 4.12 3.75 3.43 2.96 2.49 2.27 2.09 1.97 1.75 1.56 1.37 1.25 1.14 1.08 1.11 1.14 1.10 0.97 0.96 1.02 1.01 1.08 1.21 1.20 1.06 1.30 1.47 1.37 1.03 0.81 0.63 0.42 0.42 0.43 0.49 0.62
1.62 2.03 2.52 2.89 2.84 3.13 3.21 2.76 2.46 2.41 2.30 2.03 1.90 1.85 1.78 1.61 1.31 1.04 0.91 0.86 0.83 0.82 0.79 0.79 0.80 0.85 0.83 0.87 0.95 1.10 1.22 1.09 1.07 1.27 1.42 1.18 0.89 0.77 0.59 0.55 0.59 0.67 0.77
1.07 1.36 1.64 2.04 2.28 2.33 2.19 2.02 1.89 1.85 1.96 1.91 1.70 1.56 1.29 1.14 0.95 0.79 0.77 0.77 0.71 0.67 0.62 0.61 0.70 0.77 0.80 0.87 0.80 0.85 1.02 1.10 0.98 1.03 1.10 1.13 1.15 1.11 0.85 0.63 0.58 0.66 0.73
0.69 0.84 0.94 1.17 1.43 1.59 1.60 1.49 1.67 1.77 1.78 1.71 1.63 1.54 1.29 1.07 0.92 0.86 0.88 0.82 0.75 0.67 0.59 0.55 0.56 0.65 0.74 0.81 0.82 0.84 0.87 0.92 0.89 0.88 0.90 0.96 1.07 1.07 1.02 0.79 0.62 0.61 0.58
0.50 0.60 0.62 0.70 0.83 0.94 1.03 1.10 1.27 1.48 1.53 1.48 1.44 1.42 1.30 1.13 0.94 0.83 0.80 0.73 0.68 0.63 0.58 0.56 0.57 0.57 0.58 0.63 0.71 0.75 0.78 0.82 0.84 0.82 0.86 0.94 0.92 0.93 1.04 0.93 0.78 0.72 0.63
0.36 0.45 0.46 0.47 0.53 0.58 0.67 0.77 0.90 1.04 1.17 1.22 1.23 1.21 1.27 1.12 0.92 0.72 0.66 0.61 0.52 0.51 0.52 0.52 0.60 0.65 0.65 0.64 0.66 0.70 0.75 0.81 0.86 0.84 0.85 0.91 0.94 0.95 1.03 1.00 0.84 0.79 0.80
0.26 0.28 0.29 0.32 0.36 0.36 0.44 0.53 0.59 0.68 0.81 0.99 1.12 1.03 1.06 0.94 0.81 0.82 0.70 0.57 0.46 0.48 0.57 0.61 0.62 0.65 0.69 0.70 0.77 0.78 0.82 0.87 0.88 0.84 0.95 0.99 0.94 1.02 1.08 1.15 1.17 1.05 1.02
0.18 0.18 0.19 0.18 0.23 0.25 0.29 0.37 0.49 0.62 0.67 0.74 0.90 0.95 0.91 0.85 0.83 0.84 0.77 0.63 0.55 0.47 0.51 0.57 0.66 0.67 0.67 0.71 0.80 0.82 0.87 0.94 0.96 0.98 1.08 1.12 1.09 1.09 1.07 1.20 1.31 1.34 1.28
0.16 0.15 0.13 0.13 0.18 0.22 0.26 0.36 0.46 0.59 0.70 0.70 0.70 0.74 0.85 0.87 0.89 0.86 0.72 0.65 0.60 0.55 0.54 0.53 0.59 0.61 0.62 0.69 0.83 0.86 0.93 1.06 1.10 1.08 1.10 1.17 1.19 1.23 1.21 1.23 1.30 1.42 1.49
0.12 0.11 0.10 0.13 0.19 0.22 0.27 0.34 0.44 0.65 0.79 0.70 0.69 0.76 0.83 0.87 0.87 0.96 0.88 0.72 0.65 0.59 0.53 0.48 0.49 0.50 0.52 0.58 0.72 0.87 0.99 1.10 1.13 1.13 1.16 1.20 1.28 1.29 1.20 1.25 1.30 1.39 1.52
0.15 0.13 0.13 0.15 0.20 0.27 0.31 0.38 0.46 0.60 0.69 0.70 0.72 0.73 0.78 0.80 0.79 0.82 0.87 0.83 0.71 0.61 0.57 0.54 0.51 0.43 0.42 0.52 0.65 0.80 0.96 1.10 1.20 1.23 1.25 1.15 1.14 1.24 1.26 1.27 1.29 1.31 1.44
0.21 0.18 0.19 0.24 0.25 0.28 0.36 0.42 0.49 0.56 0.62 0.73 0.74 0.70 0.70 0.65 0.66 0.69 0.72 0.77 0.79 0.77 0.72 0.65 0.58 0.56 0.59 0.65 0.72 0.78 0.90 1.04 1.13 1.18 1.16 1.11 1.15 1.11 1.20 1.26 1.24 1.23 1.21
0.24 0.20 0.22 0.26 0.32 0.35 0.40 0.45 0.51 0.56 0.64 0.65 0.65 0.64 0.67 0.68 0.73 0.75 0.74 0.74 0.74 0.77 0.77 0.74 0.76 0.80 0.84 0.82 0.79 0.78 0.83 0.87 0.92 0.96 0.95 0.93 0.97 1.02 1.09 1.11 1.12 1.16 1.20
0.21 0.18 0.19 0.25 0.36 0.43 0.42 0.44 0.50 0.55 0.62 0.70 0.67 0.62 0.63 0.69 0.73 0.75 0.75 0.75 0.73 0.73 0.84 0.88 0.92 0.96 0.94 0.86 0.88 0.88 0.79 0.83 0.78 0.74 0.75 0.76 0.83 0.88 0.94 0.90 0.96 1.05 1.11
0.26 0.24 0.22 0.24 0.32 0.39 0.40 0.37 0.42 0.51 0.62 0.70 0.76 0.76 0.73 0.68 0.71 0.75 0.74 0.76 0.77 0.83 0.94 0.97 1.00 1.00 0.89 0.88 0.86 0.83 0.78 0.81 0.80 0.76 0.73 0.69 0.71 0.71 0.74 0.76 0.81 0.91 1.00
0.27 0.27 0.30 0.31 0.33 0.37 0.37 0.37 0.36 0.48 0.67 0.77 0.77 0.85 0.91 0.84 0.89 0.92 0.88 0.89 0.92 0.98 1.02 1.10 1.13 1.14 1.14 1.00 0.86 0.80 0.77 0.83 0.86 0.89 0.86 0.65 0.54 0.62 0.67 0.76 0.74 0.74 0.79
0.28 0.30 0.29 0.30 0.31 0.34 0.37 0.39 0.41 0.48 0.67 0.80 0.81 0.91 1.05 1.00 1.01 1.03 1.03 1.09 1.17 1.20 1.27 1.30 1.24 1.24 1.20 1.06 0.85 0.78 0.69 0.72 0.79 0.84 0.86 0.82 0.75 0.72 0.74 0.81 0.80 0.74 0.69
0.30 0.29 0.30 0.31 0.33 0.38 0.40 0.44 0.55 0.67 0.77 0.89 0.99 1.09 1.21 1.28 1.26 1.25 1.34 1.39 1.43 1.48 1.56 1.61 1.55 1.45 1.38 1.15 0.85 0.74 0.67 0.72 0.75 0.79 0.81 0.81 0.75 0.66 0.56 0.62 0.69 0.73 0.72
0.30 0.32 0.37 0.36 0.37 0.43 0.49 0.55 0.69 0.87 1.00 1.04 1.07 1.14 1.31 1.40 1.43 1.43 1.55 1.66 1.68 1.69 1.72 1.63 1.51 1.44 1.42 1.28 0.97 0.83 0.78 0.85 0.88 0.97 0.95 0.84 0.76 0.66 0.54 0.59 0.70 0.72 0.73
0.33 0.36 0.41 0.46 0.51 0.57 0.67 0.79 0.87 0.97 1.00 1.01 1.06 1.15 1.36 1.62 1.66 1.71 1.76 1.82 1.84 1.86 1.84 1.75 1.66 1.57 1.50 1.38 1.02 0.86 0.88 0.96 1.02 0.97 0.97 0.90 0.80 0.65 0.56 0.55 0.63 0.65 0.70
0.37 0.40 0.42 0.46 0.54 0.64 0.79 0.90 0.94 0.96 1.01 1.04 1.11 1.24 1.49 1.59 1.68 1.82 1.86 1.97 2.02 1.98 1.91 1.88 1.75 1.67 1.59 1.35 1.09 0.89 0.89 1.01 1.15 1.15 1.10 1.05 0.91 0.72 0.61 0.51 0.48 0.51 0.55
0.42 0.46 0.47 0.51 0.57 0.67 0.84 1.00 1.01 1.02 1.03 1.04 1.09 1.20 1.34 1.43 1.55 1.61 1.59 1.67 1.77 1.77 1.77 1.75 1.69 1.65 1.67 1.47 1.09 0.90 0.86 0.94 1.10 1.24 1.30 1.15 0.98 0.86 0.73 0.67 0.60 0.55 0.54
0.51 0.53 0.52 0.55 0.59 0.63 0.79 0.92 0.97 1.01 1.01 0.99 0.97 1.06 1.23 1.30 1.36 1.47 1.49 1.58 1.64 1.68 1.74 1.75 1.67 1.63 1.70 1.63 1.31 1.06 0.93 0.90 0.95 1.03 1.06 1.00 0.96 0.87 0.77 0.68 0.58 0.50 0.51
0.44 0.46 0.47 0.51 0.55 0.61 0.77 0.90 0.94 1.00 1.04 1.02 0.97 1.01 1.12 1.22 1.29 1.40 1.49 1.50 1.53 1.50 1.52 1.55 1.52 1.53 1.61 1.54 1.30 1.11 1.00 0.94 0.95 1.00 1.05 1.05 1.04 0.94 0.84 0.76 0.70 0.67 0.66
0.42 0.44 0.48 0.50 0.50 0.56 0.67 0.77 0.93 1.09 1.15 1.08 1.01 0.98 1.00 1.10 1.16 1.25 1.25 1.16 1.13 1.09 1.05 1.08 1.03 1.03 1.19 1.19 0.98 0.85 0.88 0.87 0.84 0.88 0.95 1.01 1.04 0.98 0.90 0.84 0.79 0.78 0.76